Location: Strawberry
(33.0916°N, 80.0306°W)
Time: 03:00:22
(UTC+00:00)

BlueWalker 3 - Pass Details

Date: 11 December 2022
Orbit: 499 x 517 km, 53.2° (Epoch: 05 February)

Event Time Altitude Azimuth Distance (km) Brightness Sun altitude
Rises 22:56:39 0° 326° (NW) 2,620 5.8 -9.0°
Reaches altitude 10° 22:59:06 10° 338° (NNW) 1,727 4.7 -9.5°
Maximum altitude 23:02:29 28° 38° (NE) 981 2.9 -10.2°
Enters shadow 23:05:20 13° 94° (E) 1,540 3.8 -10.7°
